Weather in Shorkistry

Russia / Chuvash Republic     55°38′57″N   47°45′02″E
temp.,
°C
wind,
m/s
gust,
m/s
humid.,
%
clouds,
%
prec.,
mm/h
press.,
hPa
HPBL,
m
24 july, sat
sat2400:00+12wsw368379 0.0 1004106
03:00+11wsw36951 0.0 1005122
06:00+13wnw478815 0.0 1006321
09:00+16nw567497 0.0 1007920
12:00+17nnw566893 0.3 10091096
15:00+18n4658100 0.6 10111401
18:00+18nw34582 0.0 1012354
21:00+13nne235715 0.0 101530
25 july, sun
sun2500:00+10nnw22575 0.0 101710
03:00+9nnw11561 0.0 101810
06:00+11nnw23585 0.0 102095
09:00+16nnw22445 0.0 1021607
12:00+19wnw34375 0.0 10212140
15:00+20wnw35369 0.0 10212424
18:00+19wsw235254 0.0 102186
21:00+16sw234696 0.0 102251
26 july, mon
mon2600:00+13sw345877 0.0 102368
03:00+12w33638 0.0 102327
06:00+14w256184 0.0 1024130
09:00+19w454813 0.0 1023475
12:00+23w463899 0.0 10232789
15:00+21wnw3651100 0.0 10221421
18:00+19wnw2355100 0.0 102250
21:00+15wsw33605 0.0 102223
27 july, tue
tue2700:00+14w346411 0.0 102247
03:00+14wsw346691 0.0 102153
06:00+15w386427 0.0 1021198
09:00+21wnw475625 0.0 1021572
12:00+24wnw564617 0.0 10201932
15:00+22wnw375693 0.0 1019260
18:00+17nw51079100 0.2 1019246
21:00+16w358538 0.8 101981
28 july, wed
wed2800:00+14wnw238999 0.0 101936
03:00+14nw22915 0.0 101917
06:00+16nw22850 0.0 1019109
09:00+21wnw33630 0.0 1018518
12:00+25w45455 0.0 10171766
15:00+26wnw4642100 0.0 10152458
18:00+24sw35603 0.0 1014138
21:00+19wsw36666 0.0 101478